This is the latest recevied weather packets stored in our database for station/object KN6ZYR. If no packets are shown the sender has not sent any weather packets the latest 10 day(s).
| Time | Temp. | Humidity | Pressure | Rain* | Wind** | Luminosity | Snow |
|---|---|---|---|---|---|---|---|
| 1777439868 | 7.78° C | 70% | 1024.6 hPa | 0 mm | - | 0 W/m² | - |
| 1777439559 | 7.78° C | 69% | 1024.6 hPa | 0 mm | - | 0 W/m² | - |
| 1777439259 | 8.33° C | 67% | 1024.8 hPa | 0 mm | - | 0 W/m² | - |
| 1777438955 | 8.33° C | 66% | 1024.7 hPa | 0 mm | - | 0 W/m² | - |
| 1777438653 | 8.89° C | 66% | 1025 hPa | 0 mm | - | 0 W/m² | - |
| 1777438349 | 8.89° C | 65% | 1024.6 hPa | 0 mm | - | 0 W/m² | - |
| 1777438044 | 8.89° C | 64% | 1024.8 hPa | 0 mm | - | 0 W/m² | - |
| 1777437741 | 8.89° C | 63% | 1024.7 hPa | 0 mm | - | 0 W/m² | - |
| 1777437438 | 9.44° C | 62% | 1024.6 hPa | 0 mm | - | 0 W/m² | - |
| 1777437134 | 9.44° C | 62% | 1024.6 hPa | 0 mm | - | 0 W/m² | - |
| 1777436831 | 9.44° C | 61% | 1024.7 hPa | 0 mm | - | 0 W/m² | - |
| 1777436527 | 9.44° C | 60% | 1024.4 hPa | 0 mm | - | 0 W/m² | - |
| 1777436224 | 9.44° C | 60% | 1024.6 hPa | 0 mm | - | 0 W/m² | - |
| 1777435921 | 9.44° C | 61% | 1024 hPa | 0 mm | - | 0 W/m² | - |
| 1777435616 | 9.44° C | 62% | 1024.1 hPa | 0 mm | - | 0 W/m² | - |
| 1777435313 | 9.44° C | 61% | 1023.9 hPa | 0 mm | - | 0 W/m² | - |
| 1777435011 | 9.44° C | 62% | 1024 hPa | 0 mm | - | 0 W/m² | - |
| 1777434709 | 9.44° C | 61% | 1023.8 hPa | 0 mm | - | 0 W/m² | - |
| 1777434407 | 10° C | 59% | 1023.9 hPa | 0 mm | - | 0 W/m² | - |
| 1777434106 | 10° C | 59% | 1023.9 hPa | 0 mm | - | 0 W/m² | - |
| 1777433803 | 10° C | 58% | 1023.5 hPa | 0 mm | - | 0 W/m² | - |
| 1777433498 | 10° C | 59% | 1023.8 hPa | 0 mm | - | 0 W/m² | - |
| 1777433194 | 10° C | 56% | 1023.6 hPa | 0 mm | - | 0 W/m² | - |
| 1777432891 | 10° C | 58% | 1023.4 hPa | 0 mm | - | 0 W/m² | - |
| 1777432590 | 10° C | 57% | 1023.8 hPa | 0 mm | - | 0 W/m² | - |
* Rain latest hour (hover to see other rain measurements)
** Current wind speed in m/s (hover to see current wind gust speed)